SB KEPS @ AMSAT $ORB26207.1 2Line Orbital Elements 26207.AMSAT QST de W1STR AMSAT Orbital Elements for Amateur Satellites in TLE Format From Orbital Analysis Office New England Sci-Tech STEM Education Center Natick MA July 26, 2026 To all radio amateurs These element sets describe the orbits of various satellites in use by the amateur radio community. For details see: www.amsat.org/keplerian-elements-formats/ A daily update of element sets is available at: www.amsat.org/tle/daily-bulletin.txt or without bulletin text: www.amsat.org/tle/dailytle.txt AO-07 1 07530U 74089B 26206.85865834 -.00000024 00000-0 14023-3 0 9996 2 07530 101.9910 220.5086 0012592 58.5779 65.0016 12.53698730365366 UO-11 1 14781U 84021B 26207.14990123 .00001512 00000-0 15904-3 0 9993 2 14781 97.8085 172.2978 0009019 61.2290 298.9833 14.90874419262936 LO-19 1 20442U 90005G 26207.32206402 .00000134 00000-0 64417-4 0 9996 2 20442 98.8847 230.2044 0012694 91.5851 268.6787 14.34133468908002 AO-27 1 22825U 93061C 26207.15707977 .00000099 00000-0 54836-4 0 9996 2 22825 98.6860 274.5521 0008122 354.1253 5.9833 14.30951411712579 FO-29 1 24278U 96046B 26207.12567699 -.00000028 00000-0 85705-5 0 9991 2 24278 98.5211 50.6601 0349812 355.5933 4.2151 13.53275845478431 GO-32 1 25397U 98043D 26206.90867303 .00000066 00000-0 48863-4 0 9997 2 25397 99.0094 200.6484 0002360 97.7653 262.3793 14.24435052456840 ISS 1 25544U 98067A 26207.08830238 .00010158 00000-0 19105-3 0 9993 2 25544 51.6316 107.5836 0006935 338.3897 21.6798 15.49174705577788 NO-44 1 26931U 01043C 26207.20271445 .00000132 00000-0 80160-4 0 9996 2 26931 67.0507 143.3596 0005813 267.5546 92.4890 14.31968750296037 SO-50 1 27607U 02058C 26207.06278983 .00001200 00000-0 15836-3 0 9996 2 27607 64.5527 8.6969 0074197 255.2822 104.0053 14.83118460270227 CO-55 1 27844U 03031E 26205.97080695 .00000297 00000-0 14722-3 0 9998 2 27844 98.6748 214.0560 0010828 77.5978 282.6412 14.24356508197054 RS-22 1 27939U 03042A 26207.33762939 .00000571 00000-0 95997-4 0 9994 2 27939 98.3482 32.8064 0012025 139.1364 343.1470 14.73529932221312 CO-65 1 32785U 08021C 26207.22319751 .00005483 00000-0 34339-3 0 9998 2 32785 97.8301 189.4693 0006933 252.3318 107.7154 15.09787059991083 CO-66 1 32791U 08021J 26206.44161486 .00018004 00000-0 54963-3 0 9996 2 32791 97.7534 206.2047 0004107 136.7672 223.3893 15.33968984993157 RS-30 1 32953U 08025A 26207.29129304 .00000078 00000-0 48922-3 0 9997 2 32953 82.5065 331.1159 0018944 223.6013 136.3571 12.43181497824556 SRMSAT 1 37841U 11058D 26207.02669267 .00000372 00000-0 58230-4 0 9997 2 37841 19.9703 184.3803 0011523 271.2245 137.1248 14.11582893763314 ZACUBE-1 1 39417U 13066B 26205.86534553 .00004284 00000-0 33038-3 0 9992 2 39417 97.7985 168.3837 0044026 124.3429 236.1972 15.01376484686388 Delfi-N3xt 1 39428U 13066N 26207.25874888 .00008448 00000-0 72516-3 0 9997 2 39428 97.8313 127.5384 0075924 77.0618 283.9068 14.95481770680461 GOMX-1 1 39430U 13066Q 26207.26963509 .00001394 00000-0 21525-3 0 9997 2 39430 97.6469 45.2670 0127269 312.4524 46.5977 14.69564888675650 LO-74 1 39440U 13066AA 26207.31319671 .00003044 00000-0 28257-3 0 9992 2 39440 97.8909 156.4689 0055641 257.4787 102.0204 14.94025638682832 AO-73 1 39444U 13066AE 26207.16128741 .00007850 00000-0 47969-3 0 9995 2 39444 97.8294 179.4391 0037875 72.2971 288.2387 15.09954379685545 DTUSAT-2 1 40030U 14033W 26207.26574572 .00007333 00000-0 39090-3 0 9993 2 40030 98.0882 207.4909 0009747 100.6137 259.6192 15.15476218658609 LILACSAT-2 1 40908U 15049K 26207.27777839 .00019976 00000-0 32457-3 0 9993 2 40908 97.4627 245.6313 0008664 109.3290 250.8900 15.52705479601815 Lapan A3 1 41603U 16040E 26207.28452035 .00003290 00000-0 10440-3 0 9997 2 41603 97.1510 202.1561 0008666 227.4652 132.5860 15.33334568560805 CAS-2T 1 41847U 16066G 26207.16238672 .00000805 00000-0 12157-3 0 9997 2 41847 98.3807 282.4526 0341613 11.5185 349.3577 14.44785686510422 TechnoSat 1 42829U 17042E 26207.00949650 .00002351 00000-0 16874-3 0 9999 2 42829 97.4318 3.2049 0016492 325.8891 34.1275 15.05155724492546 AO-91 1 43017U 17073E 26207.16307103 .00008086 00000-0 34951-3 0 9998 2 43017 97.4662 73.5841 0148768 193.3414 166.3866 15.13194690471285 S-Net D 1 43186U 18014G 26207.18519100 .00004442 00000-0 22813-3 0 9991 2 43186 97.5320 111.7335 0006412 235.9301 124.1324 15.17001550464676 S-Net B 1 43187U 18014H 26207.19741686 .00004904 00000-0 25168-3 0 9998 2 43187 97.5327 111.7333 0007149 230.9949 129.0648 15.16972022464676 S-Net A 1 43188U 18014J 26207.18385448 .00004593 00000-0 23571-3 0 9998 2 43188 97.5336 111.9362 0007029 231.8153 128.2448 15.17010317464675 S-Net C 1 43189U 18014K 26207.20150963 .00004912 00000-0 25209-3 0 9999 2 43189 97.5355 112.0344 0008530 224.5806 135.4741 15.16962606463223 Ten-Koh 1 43677U 18084G 26207.26932884 .00002315 00000-0 17651-3 0 9991 2 43677 98.0770 41.2808 0009163 359.6126 0.5089 15.03090172422035 PO-101 1 43678U 18084H 26207.31352638 .00001819 00000-0 14906-3 0 9999 2 43678 98.1222 45.2385 0012079 49.6840 310.5436 15.00596801422084 QO-100 1 43700U 18090A 26207.08517100 .00000000 00000-0 00000-0 0 9991 2 43700 0.0256 67.3543 0002443 88.1462 204.7313 1.00269405 28062 MinXSS-2 1 43758U 18099A 26207.19431624 .00045095 00000-0 81419-3 0 9990 2 43758 97.4516 284.6932 0008716 126.0111 234.1950 15.49563701420167 AO-95 1 43770U 18099N 26207.13093367 .00012306 00000-0 45977-3 0 9994 2 43770 97.4370 267.2484 0008288 197.7474 162.3477 15.27476644419168 SNUSat 2 1 43782U 18099AA 26207.11991558 .00008547 00000-0 37241-3 0 9991 2 43782 97.4042 259.9138 0011240 151.6362 208.5489 15.22386201418954 SnugLite 1 43784U 18099AC 26207.11920470 .00012127 00000-0 44672-3 0 9993 2 43784 97.3853 261.0312 0004366 133.3720 226.7884 15.27967438419267 ITASat 1 1 43786U 18099AE 26207.14403390 .00007127 00000-0 33828-3 0 9990 2 43786 97.4012 257.8840 0011755 208.5766 151.4826 15.19498003418820 EAGLET 1 1 43790U 18099AJ 26207.13715659 .00004411 00000-0 25175-3 0 9997 2 43790 97.4214 255.7751 0010457 202.4400 157.6376 15.13203806418224 ESEO 1 43792U 18099AL 26207.09334050 .00001511 00000-0 11242-3 0 9994 2 43792 97.3963 242.8143 0011553 191.1411 168.9561 15.04354942417657 JO-97 1 43803U 18099AX 26207.16280525 .00018384 00000-0 54550-3 0 9997 2 43803 97.4110 270.1588 0007351 126.2915 233.9008 15.34838122419607 Suomi 100 1 43804U 18099AY 26207.14960477 .00013527 00000-0 47790-3 0 9999 2 43804 97.4171 267.4148 0011326 137.1636 223.0489 15.29263375419377 ISAT 1 43879U 18111D 26206.55458933 .00145816 00000-0 10463-2 0 9992 2 43879 97.5836 144.9478 0008770 125.0290 235.1798 15.73178222417183 UWE-4 1 43880U 18111E 26206.24216282 .00032642 00000-0 61608-3 0 9999 2 43880 97.5836 136.4504 0007853 160.5744 199.5807 15.48369567416662 Sparrow 1 43881U 18111F 26206.60003763 .00380888 56607-4 12274-2 0 9998 2 43881 97.6072 151.5203 0009567 142.0597 218.1351 15.90807699417444 Prox-1 1 44339U 19036A 26207.20657311 .00012654 00000-0 12058-2 0 9990 2 44339 23.9927 213.4240 0006539 128.1517 231.9572 14.91452318379300 Taurus 1 1 44530U 19059C 26207.32080980 .00004767 00000-0 75947-3 0 9996 2 44530 98.6446 14.5947 0008792 180.2185 179.9019 14.72464401364402 TO-108 1 44881U 19093C 26207.28720260 .00000982 00000-0 11675-3 0 9993 2 44881 97.7515 278.5625 0012595 323.9607 36.0759 14.86574213357228 RS-44 1 44909U 19096E 26207.25166960 -.00000004 00000-0 -64555-4 0 9998 2 44909 82.5246 313.7500 0218283 53.2552 308.8374 12.79748870307343 SALSAT 1 46495U 20068K 26206.46920955 .00007256 00000-0 25013-3 0 9994 2 46495 97.8864 211.8813 0010316 158.0440 202.1243 15.30293295321211 CSS (TIANHE-1) 1 48274U 21035A 26205.70067244 .00011455 00000-0 15064-3 0 9996 2 48274 41.4690 94.2105 0001496 308.5106 51.5598 15.58352000299029 CUTE 1 49263U 21088D 26197.83813593 .08921004 25505-5 41832-3 0 9995 2 49263 97.3907 300.4441 0014216 277.7997 82.1689 16.41647044267308 TeikyoSat 4 1 49396U 21102B 26207.03055647 .00002104 00000-0 13442-3 0 9998 2 49396 97.3661 235.0037 0012780 152.1539 208.0377 15.09630287258585 Z-Sat 1 49399U 21102E 26207.34311682 .00003255 00000-0 16019-3 0 9990 2 49399 97.3318 241.4796 0018409 108.8522 251.4711 15.18536933259380 KOSEN 1 1 49402U 21102H 26207.06407884 .00008104 00000-0 30429-3 0 9993 2 49402 97.3173 248.4737 0015186 73.7282 286.5626 15.27349467259959 HO-113 1 50466U 21131B 26207.27597817 .00000272 00000-0 97663-4 0 9998 2 50466 98.4985 299.4547 0003823 0.0068 0.1120 14.41389318240749 SNUGLITE 2 1 52899U 22065F 26207.18350627 .00001061 00000-0 20974-3 0 9990 2 52899 98.2249 351.9565 0006172 259.1871 100.8636 14.64411230216708 UmKA 1 (RS40S) 1 57172U 23091G 26207.23709482 .00006549 00000-0 29602-3 0 9995 2 57172 97.5032 265.7891 0011903 351.2342 8.8684 15.21224717169947 CubeBel-2 (EU11S) 1 57175U 23091K 26207.23818990 .00013287 00000-0 45872-3 0 9997 2 57175 97.5033 270.8232 0008377 346.2964 13.8047 15.30052236170274 RS-38S 1 57189U 23091Z 26207.21964749 .00018199 00000-0 50147-3 0 9992 2 57189 97.5076 277.5148 0005189 290.0529 70.0156 15.37177013170686 SONATE-2 1 59112U 24043Q 26206.68533122 .00042731 00000-0 49680-3 0 9994 2 59112 97.5560 359.5375 0006164 70.8558 289.3366 15.61600146133890 GRBBeta 1 60237U 24128C 26207.10882497 .00003894 00000-0 27036-3 0 9996 2 60237 61.9902 79.6855 0035521 143.1283 217.2263 15.06872661112138 Curium One 1 60242U 24128H 26207.16902248 .00008131 00000-0 46363-3 0 9998 2 60242 61.9789 67.6560 0035017 138.8561 221.5185 15.13002783112350 ROBUSTA-3A 1 60243U 24128J 26207.09009940 .00008290 00000-0 48350-3 0 9992 2 60243 61.9866 70.6253 0036518 136.4235 223.9755 15.12122036112306 CatSat 1 60246U 24125J 26207.11243279 .00081773 00000-0 86728-3 0 9998 2 60246 97.2048 60.2543 0018513 43.9572 316.3156 15.63620476113468 HYPERVIEW-1G (RS66S) 1 61772U 24199AP 26207.27115069 .00225340 20630-4 72936-3 0 9997 2 61772 97.2756 89.3355 0007991 131.3435 228.8527 15.90761944140858 AO-123 1 61781U 24199AY 26207.25444298 .00008140 00000-0 23234-3 0 9993 2 61781 97.2954 75.5767 0014232 160.8760 199.3021 15.36191717139928 JINJUSat 1B 1 63210U 25052A 26207.15183651 .00017399 00000-0 51985-3 0 9993 2 63210 97.3957 103.9820 0001713 352.4489 7.6728 15.34656452 76075 NUSHSAT 1 1 63211U 25052B 26207.19419102 .00023528 00000-0 64209-3 0 9995 2 63211 97.3932 104.7323 0001639 14.4404 345.6887 15.37432305 76135 TEVEL2-4 1 63213U 25052D 26207.15808008 .00020274 00000-0 58138-3 0 9999 2 63213 97.3854 103.6402 0002261 33.2533 326.8853 15.35915301 76099 TEVEL2-5 1 63214U 25052E 26206.46645690 .00018969 00000-0 54811-3 0 9991 2 63214 97.3856 102.8833 0002463 34.7171 325.4233 15.35691666 75988 TEVEL2-6 1 63215U 25052F 26207.19643220 .00020212 00000-0 58389-3 0 9998 2 63215 97.3856 103.5999 0002354 35.3419 324.7981 15.35685489 76092 TEVEL2-1 1 63217U 25052H 26206.39222250 .00018169 00000-0 53552-3 0 9992 2 63217 97.3829 102.3709 0003196 38.4496 321.6974 15.35073268 75952 TEVEL2-3 1 63218U 25052J 26207.16754844 .00019216 00000-0 56446-3 0 9997 2 63218 97.3836 103.1746 0002925 40.9970 319.1493 15.35169177 76072 TEVEL2-2 1 63219U 25052K 26207.17448980 .00019165 00000-0 56390-3 0 9991 2 63219 97.3832 103.1573 0003130 37.0447 323.1012 15.35115471 76072 TEVEL2-9 1 63237U 25052AD 26207.20351927 .00017671 00000-0 55516-3 0 9998 2 63237 97.3896 102.4741 0006477 25.4551 334.7009 15.33037357 76006 TEVEL2-7 1 63238U 25052AE 26207.18700270 .00017759 00000-0 56361-3 0 9991 2 63238 97.3893 102.3568 0006545 25.1974 334.9586 15.32712472 75998 TEVEL2-8 1 63239U 25052AF 26207.19562592 .00017633 00000-0 55988-3 0 9991 2 63239 97.3895 102.3409 0006566 25.5264 334.6301 15.32699195 75992 SPIRONE 1 66657U 25274H 26207.24476810 .00002058 00000-0 19975-3 0 9998 2 66657 97.7469 135.9804 0010476 241.2099 118.8069 14.93690664 36054 K-HERO 1 66660U 25274L 26207.03770086 .00001915 00000-0 18437-3 0 9994 2 66660 97.7479 135.9657 0012282 247.3059 112.6863 14.94095022 36035 SNUGLITE-III DURI 1 66661U 25274M 26207.15858571 .00002054 00000-0 19720-3 0 9995 2 66661 97.7475 136.1058 0012944 247.8856 112.0990 14.94119643 36058 SAKHACUBE-CHOLBON 1 67290U 25313AU 26207.19614401 .00009807 00000-0 38913-3 0 9992 2 67290 97.3920 281.7565 0008551 207.7846 152.2936 15.25531215 31926 RS95S (QMR-KWT-2) 1 67291U 25313AV 26207.14480388 .00015233 00000-0 57253-3 0 9991 2 67291 97.3922 281.9704 0008393 204.6363 155.4476 15.27225283 31932 Ten-Koh2 1 68261U 25241B 26207.16132708 .00006996 00000-0 29582-3 0 9991 2 68261 51.6557 134.0852 0004856 267.1776 92.8646 15.24282765 20858 JACK-002 1 68417U 26067B 26207.14348780 .00006708 00000-0 31610-3 0 9994 2 68417 97.4583 165.2695 0003754 115.0408 245.1217 15.19827963 17861 DISCO 2 1 68431U 26067R 26206.84223258 .00008199 00000-0 38812-3 0 9995 2 68431 97.4616 164.9622 0001853 155.1066 205.0259 15.19603513 17812 HADES-SA (SpinnyONE) 1 68446U 26067AG 26206.34595336 .00018093 00000-0 83480-3 0 9990 2 68446 97.4410 164.1081 0004520 323.3279 36.7646 15.20280123 17729 PARUS-6U1 1 68456U 26067AS 26206.62608152 .00006025 00000-0 30054-3 0 9994 2 68456 97.4570 164.4133 0003714 302.0361 58.0512 15.17885036 17761 SAL-E 1 68458U 26067AU 26206.61362110 .00007737 00000-0 38072-3 0 9995 2 68458 97.4494 164.3174 0004004 317.1155 42.9766 15.18266258 17766 FSI-SAT 2 1 68792U 26088A 26207.19594476 .00003780 00000-0 25534-3 0 9998 2 68792 97.5110 355.4934 0013506 340.7932 19.2784 15.07110967 14163 OrigamiSat 2 1 68795U 26088D 26207.14914139 .00012108 00000-0 75662-3 0 9999 2 68795 97.5110 355.7117 0013496 306.7716 53.2274 15.09526508 14179 ARICA 2 1 68796U 26088E 26206.83169606 .00004795 00000-0 30916-3 0 9992 2 68796 97.5100 355.3534 0014372 309.1025 50.8925 15.08695084 14128 WASEDA-SAT-ZERO-II 1 68797U 26088F 26207.28458068 .00006319 00000-0 40238-3 0 9998 2 68797 97.5099 355.8199 0013966 307.0086 52.9865 15.09030872 14192 MANGARO-II-Piscus 1 68798U 26088G 26207.27325042 .00003698 00000-0 23692-3 0 9995 2 68798 97.5112 355.8473 0017547 310.2627 49.7067 15.09030335 14192 IO-86 1 40931U 25360.30710720 .00000000 00000-0 12800-3 0 00 2 40931 6.0006 332.5373 0012733 338.8432 8.1437 14.79075515 01 LILIUM-4 1 71922C 26067AC 26089.50133053 -.00014632 00000+0 -74472-3 0 04 2 71922 97.4497 49.1617 0004341 5.9603 355.7042 15.16896692 16 /EX